Tracking 19817 objects as of 18-Aug-2019
HD Live streaming from Space Station
objects crossing your sky now

COSMOS 2251 DEB

Track COSMOS 2251 DEB now!
10-day predictions


NORAD ID: 35076
Int'l Code: 1993-036AJF
Perigee: 629.5 km
Apogee: 732.1 km
Inclination: 74.0 °
Period: 98.2 minutes
Semi major axis: 7051 km
RCS: 0.0065 m2 (small)
Launch date: June 16, 1993
Source: Commonwealth of Independent States (former USSR) (CIS)
Launch site: PLESETSK MISSILE AND SPACE COMPLEX (PKMTR)

Note: This is SATELLITE DEBRIS
aabbcc
Your satellite tracking list
Your tracking list is empty




NASA's NSSDC Master Catalog

Two Line Element Set (TLE):
1 35076U 93036AJF 19218.43035144  .00000397  00000-0  75817-4 0  9998
2 35076  73.9697 255.0309 0072813 300.7426  58.6584 14.66064634547856
Source of the keplerian elements: AFSPC